Regional Weather Roundup
Issued by NWS

Home | Current Version | Previous Version | Text Only | Print | Product List | Glossary On
Versions: 1 2 3 4 5 6 7 8 9 10 11 12 13 14 15 16 17 18 19 20 21 22 23 24 25 26 27 28 29 30 31 32 33 34 35 36 37 38 39 40 41 42 43 44 45 46 47 48 49 50
000
ASMX46 KSGX 280903
RWRMX

MEXICAN WEATHER ROUNDUP
NATIONAL WEATHER SERVICE SAN DIEGO CA
100 AM PST SUN DEC 28 2014

BAJA CALIFORNIA

CITY           SKY/WX    TMP DP  RH WIND       PRES   REMARKS
ENSENADA NW      N/A     52  32  46 CALM      30.26S
TIJUANA        CLEAR     46  10  23 CALM      30.31F

NORTHWESTERN MEXICO

CITY           SKY/WX    TMP DP  RH WIND       PRES   REMARKS

NORTHEASTERN MEXICO

CITY           SKY/WX    TMP DP  RH WIND       PRES   REMARKS
MONTERREY      LGT RAIN  46  45  93 NW9       30.15S
REYNOSA        CLOUDY    50  45  81 NW14      30.16R
VICTORIA       MOCLDY    61  48  63 NW7       30.11F

WESTERN MEXICO

CITY           SKY/WX    TMP DP  RH WIND       PRES   REMARKS
DURANGO        CLEAR     39  37  93 CALM      30.19
GUADALAJARA    MOCLDY    55  50  82 CALM      30.21F
MAZATLAN       CLEAR     55  52  88 NW8       30.03F
PTO. VALLARTA  PTCLDY    68  66  94 N2        29.96F

CENTRAL MEXICO

CITY           SKY/WX    TMP DP  RH WIND       PRES   REMARKS
LEON           MOCLDY    50  43  76 N5        30.32
MEXICO CITY    PTCLDY    55  43  62 SW3       30.32F
QUERETARO      PTCLDY    50  41  71 CALM      30.30F
S. LUIS POTOSI CLEAR     54  37  54 CALM      30.22F
TAMPICO        MOCLDY    68  63  83 N20       30.01F
TOLUCA         FOG       45  41  87 CALM      30.40F VSB 1/4

SOUTHERN MEXICO

CITY           SKY/WX    TMP DP  RH WIND       PRES   REMARKS
ACAPULCO       PTCLDY    72  68  88 NW2       29.88F
TAPACHULA      CLEAR     75  72  88 CALM      29.90F

YUCATAN PENINSULA

CITY           SKY/WX    TMP DP  RH WIND       PRES   REMARKS
CANCUN         PTCLDY    77  72  83 SE8       30.03S
MERIDA         CLEAR     72  70  94 E6        29.99S

$$



USA.gov is the U.S. government's official web portal to all federal, state and local government web resources and services.